Home   Weather   Cluj-Napoca   Past weeks

Flag for Romania Past Weather in Cluj-Napoca, Romania — Yesterday and Last 2 Weeks

Now
59 °F

Clear.


Feels Like: 58 °F
Forecast: 62 / 78 °F
Wind: 7 mph from West

Location: Cluj Airport-Napoca

Current Time: Jul 28, 2017 at 5:53:50 am

Latest Report: Jul 28, 2017 at 5:30 am


Visibility: 10 mi

Pressure: 29.83 "Hg

Humidity: 82%

Dew Point: 54 °F

Location of Cluj-NapocaLocation

Past Weather in Cluj-Napoca — Graph

°F

Cluj-Napoca Temperature Yesterday

Maximum temperature yesterday: 77 °F (at 2:00 pm)
Minimum temperature yesterday: 54 °F (at 4:30 am)
Average temperature yesterday: 67 °F

High & Low Weather Summary for the Past Weeks

 TemperatureHumidityPressure
High91 °F (Jul 22, 3:30 pm)100% (Jul 13, 6:00 am)30.21 "Hg (Jul 13, 6:00 am)
Low50 °F (Jul 17, 6:00 am)25% (Jul 18, 7:00 pm)29.56 "Hg (Jul 25, 12:00 pm)
Average70 °F61%29.94 "Hg
* Reported Jul 13 4:30 am — Jul 28 4:30 am, Cluj-Napoca. Weather by CustomWeather, © 2017

Note: Actual official high and low records may vary slightly from our data, if they occured in-between our weather recording intervals... More about our weather records

Advertising

Cluj-Napoca Weather History for the Previous 24 Hours

Scroll right to see more
 ConditionsComfort  
Time TempWeatherWind HumidityBarometerVisibility
4:30 am
Fri, Jul 28
57 °FClear.1 mph88%29.80 "Hg10 mi
4:00 am59 °FPassing clouds.5 mph82%29.80 "HgN/A
3:30 am61 °FClear.6 mph77%29.80 "Hg10 mi
3:00 am61 °FClear.6 mph77%29.80 "Hg10 mi
2:30 am63 °FClear.9 mph73%29.80 "Hg10 mi
2:00 am63 °FClear.8 mph73%29.80 "Hg10 mi
1:30 am64 °FPassing clouds.8 mph68%29.80 "HgN/A
1:00 am64 °FPassing clouds.8 mph68%29.80 "HgN/A
12:30 am64 °FClear.9 mph68%29.80 "Hg10 mi
12:00 am64 °FClear.12 mph64%29.80 "Hg10 mi
11:30 pm
Thu, Jul 27
64 °FClear.6 mph68%29.80 "Hg10 mi
11:00 pm66 °FClear.8 mph60%29.80 "Hg10 mi
10:30 pm66 °FClear.7 mph60%29.80 "Hg10 mi
10:00 pm66 °FClear.5 mph60%29.80 "Hg10 mi
9:30 pm68 °FPassing clouds.7 mph56%29.77 "HgN/A
9:00 pm70 °FSunny.8 mph53%29.77 "Hg10 mi
8:30 pm70 °FSunny.8 mph53%29.77 "Hg10 mi
8:00 pm72 °FPassing clouds.10 mph50%29.77 "HgN/A
7:30 pm72 °FPassing clouds.13 mph50%29.77 "HgN/A
7:00 pm73 °FPassing clouds.15 mph47%29.74 "HgN/A
6:30 pm73 °FPassing clouds.15 mph47%29.74 "HgN/A
6:00 pm73 °FPassing clouds.16 mph50%29.74 "HgN/A
5:30 pm75 °FPassing clouds.16 mph47%29.74 "HgN/A
5:00 pm75 °FScattered clouds.14 mph50%29.74 "HgN/A
4:30 pm77 °FPartly sunny.12 mph42%29.74 "HgN/A
4:00 pm75 °FPartly sunny.8 mph41%29.74 "HgN/A
3:30 pm75 °FPartly sunny.8 mph41%29.74 "HgN/A
3:00 pm77 °FScattered clouds.7 mph39%29.74 "HgN/A
2:30 pm77 °FScattered clouds.8 mph39%29.74 "HgN/A
2:00 pm77 °FScattered clouds.2 mph36%29.74 "HgN/A
1:30 pm75 °FScattered clouds.6 mph41%29.74 "HgN/A
1:00 pm75 °FScattered clouds.6 mph41%29.74 "HgN/A
12:30 pm75 °FPassing clouds.7 mph39%29.77 "HgN/A
12:00 pm75 °FPassing clouds.2 mph41%29.77 "HgN/A
11:30 am73 °FPassing clouds.3 mph47%29.77 "HgN/A
11:00 am73 °FSunny.5 mph47%29.77 "Hg10 mi
10:30 am70 °FSunny.5 mph53%29.77 "Hg10 mi
10:00 am66 °FSunny.3 mph56%29.77 "Hg10 mi
9:30 am64 °FSunny.5 mph64%29.77 "Hg10 mi
9:00 am61 °FSunny.5 mph72%29.77 "Hg10 mi
8:30 am57 °FSunny.2 mph82%29.77 "Hg10 mi
8:00 am55 °FSunny.6 mph82%29.77 "Hg10 mi
7:30 am55 °FSunny.2 mph82%29.77 "Hg10 mi
7:00 am54 °FPassing clouds.3 mph88%29.77 "HgN/A
6:30 am54 °FSunny.5 mph88%29.77 "Hg10 mi
6:00 am54 °FSunny.No wind88%29.77 "Hg10 mi
5:30 am54 °FClear.No wind88%29.77 "Hg10 mi
Weather by CustomWeather, © 2017

See weather overviewHow to use our weather pages